Time,TemperatureF,DewpointF,PressureIn,WindDirection,WindDirectionDegrees,WindSpeedMPH,WindSpeedGustMPH,Humidity,HourlyPrecipIn,Conditions,Clouds,dailyrainin,SoftwareType,DateUTC
2013-05-29 00:01:00,72.4,66.9,29.92,ENE,68,0.9,1.1,83,0.00,,,0.00,WUHU216HW,2013-05-29 05:01:00,
2013-05-29 00:06:00,72.4,66.9,29.92,ENE,68,1.8,1.8,83,0.00,,,0.00,WUHU216HW,2013-05-29 05:06:00,
2013-05-29 00:11:00,72.4,66.9,29.92,ENE,68,1.1,2.0,83,0.00,,,0.00,WUHU216HW,2013-05-29 05:11:00,
2013-05-29 00:16:00,72.2,66.7,29.92,East,90,0.7,2.0,83,0.00,,,0.00,WUHU216HW,2013-05-29 05:16:00,
2013-05-29 00:21:00,72.4,66.9,29.92,NE,45,0.0,1.8,83,0.00,,,0.00,WUHU216HW,2013-05-29 05:21:00,
2013-05-29 00:26:00,72.2,66.7,29.92,ENE,68,0.0,1.6,83,0.00,,,0.00,WUHU216HW,2013-05-29 05:26:00,
2013-05-29 00:31:00,72.4,66.9,29.93,ENE,68,0.4,1.1,83,0.00,,,0.00,WUHU216HW,2013-05-29 05:31:00,
2013-05-29 00:36:00,72.2,66.7,29.93,East,90,0.9,1.3,83,0.00,,,0.00,WUHU216HW,2013-05-29 05:36:00,
2013-05-29 00:41:00,72.4,66.9,29.93,ESE,113,1.6,2.0,83,0.00,,,0.00,WUHU216HW,2013-05-29 05:41:00,
2013-05-29 00:46:00,72.2,66.7,29.93,North,0,3.1,3.8,83,0.00,,,0.00,WUHU216HW,2013-05-29 05:46:00,
2013-05-29 00:51:00,72.2,66.4,29.93,ESE,113,3.6,4.0,82,0.00,,,0.00,WUHU216HW,2013-05-29 05:51:00,
2013-05-29 00:56:00,72.0,66.3,29.93,ENE,68,2.5,4.0,82,0.00,,,0.00,WUHU216HW,2013-05-29 05:56:00,
2013-05-29 01:01:00,72.0,66.3,29.93,ESE,113,0.9,3.6,82,0.00,,,0.00,WUHU216HW,2013-05-29 06:01:00,
2013-05-29 01:06:00,72.0,66.3,29.93,ENE,68,1.8,4.0,82,0.00,,,0.00,WUHU216HW,2013-05-29 06:06:00,
2013-05-29 01:11:00,71.8,66.1,29.93,ESE,113,0.9,4.0,82,0.00,,,0.00,WUHU216HW,2013-05-29 06:11:00,
2013-05-29 01:16:00,71.8,66.3,29.93,ESE,113,1.8,3.1,83,0.00,,,0.00,WUHU216HW,2013-05-29 06:16:00,
2013-05-29 01:21:00,71.6,66.2,29.93,NE,45,4.3,7.6,83,0.00,,,0.00,WUHU216HW,2013-05-29 06:21:00,
2013-05-29 01:26:00,71.6,65.9,29.93,North,0,1.8,7.6,82,0.00,,,0.00,WUHU216HW,2013-05-29 06:26:00,
2013-05-29 01:31:00,71.5,65.7,29.93,NNE,23,1.1,5.8,82,0.00,,,0.00,WUHU216HW,2013-05-29 06:31:00,
2013-05-29 01:36:00,71.1,65.0,29.93,ESE,113,5.4,6.0,81,0.00,,,0.00,WUHU216HW,2013-05-29 06:36:00,
2013-05-29 01:41:00,70.7,64.3,29.93,ESE,113,3.6,6.0,80,0.00,,,0.00,WUHU216HW,2013-05-29 06:41:00,
2013-05-29 01:46:00,70.6,64.1,29.93,ESE,113,1.1,5.4,80,0.00,,,0.00,WUHU216HW,2013-05-29 06:46:00,
2013-05-29 01:51:00,70.2,63.7,29.93,East,90,1.8,5.6,80,0.00,,,0.00,WUHU216HW,2013-05-29 06:51:00,
2013-05-29 01:56:00,70.0,63.5,29.92,ESE,113,1.8,5.6,80,0.00,,,0.00,WUHU216HW,2013-05-29 06:56:00,
2013-05-29 02:01:00,69.7,62.8,29.92,SE,135,1.8,4.0,79,0.00,,,0.00,WUHU216HW,2013-05-29 07:01:00,
2013-05-29 02:06:00,69.5,63.0,29.92,ENE,68,2.5,4.9,80,0.00,,,0.00,WUHU216HW,2013-05-29 07:06:00,
2013-05-29 02:11:00,69.3,62.9,29.92,SE,135,1.6,4.9,80,0.00,,,0.00,WUHU216HW,2013-05-29 07:11:00,
2013-05-29 02:16:00,69.1,62.7,29.92,SE,135,2.5,6.3,80,0.00,,,0.00,WUHU216HW,2013-05-29 07:16:00,
2013-05-29 02:21:00,68.9,62.6,29.91,ESE,113,1.6,6.3,80,0.00,,,0.00,WUHU216HW,2013-05-29 07:21:00,
2013-05-29 02:25:00,68.9,62.6,29.91,ESE,113,1.8,3.6,80,0.00,,,0.00,WUHU216HW,2013-05-29 07:25:00,
2013-05-29 02:30:00,68.8,62.4,29.91,SSE,158,2.0,3.6,80,0.00,,,0.00,WUHU216HW,2013-05-29 07:30:00,
2013-05-29 02:35:00,68.8,62.4,29.91,SE,135,1.1,2.7,80,0.00,,,0.00,WUHU216HW,2013-05-29 07:35:00,
2013-05-29 02:40:00,68.8,62.4,29.91,SE,135,1.8,2.7,80,0.00,,,0.00,WUHU216HW,2013-05-29 07:40:00,
2013-05-29 02:45:00,68.6,62.6,29.90,ESE,113,1.3,2.5,81,0.00,,,0.00,WUHU216HW,2013-05-29 07:45:00,
2013-05-29 02:50:00,68.6,62.6,29.90,SE,135,2.7,2.7,81,0.00,,,0.00,WUHU216HW,2013-05-29 07:50:00,
2013-05-29 02:55:00,68.6,62.6,29.90,SE,135,1.1,3.8,81,0.00,,,0.00,WUHU216HW,2013-05-29 07:55:00,
2013-05-29 03:00:00,68.6,62.9,29.89,East,90,2.0,4.3,82,0.00,,,0.00,WUHU216HW,2013-05-29 08:00:00,
2013-05-29 03:05:00,68.6,62.9,29.89,SSE,158,1.8,4.3,82,0.00,,,0.00,WUHU216HW,2013-05-29 08:05:00,
2013-05-29 03:10:00,68.6,62.9,29.89,SE,135,2.2,3.1,82,0.00,,,0.00,WUHU216HW,2013-05-29 08:10:00,
2013-05-29 03:15:00,68.8,63.4,29.89,ESE,113,1.8,3.1,83,0.00,,,0.00,WUHU216HW,2013-05-29 08:15:00,
2013-05-29 03:20:00,68.8,63.4,29.89,SE,135,1.1,2.9,83,0.00,,,0.00,WUHU216HW,2013-05-29 08:20:00,
2013-05-29 03:25:00,68.8,63.4,29.89,SE,135,1.8,2.2,83,0.00,,,0.00,WUHU216HW,2013-05-29 08:25:00,
2013-05-29 03:30:00,68.8,63.7,29.89,SE,135,0.4,2.2,84,0.00,,,0.00,WUHU216HW,2013-05-29 08:30:00,
2013-05-29 03:35:00,68.9,63.9,29.89,SSE,158,2.5,2.5,84,0.00,,,0.00,WUHU216HW,2013-05-29 08:35:00,
2013-05-29 03:40:00,69.1,64.1,29.89,SE,135,1.3,2.9,84,0.00,,,0.00,WUHU216HW,2013-05-29 08:40:00,
2013-05-29 03:45:00,69.3,64.3,29.89,ESE,113,3.4,3.6,84,0.00,,,0.00,WUHU216HW,2013-05-29 08:45:00,
2013-05-29 03:50:00,69.5,64.4,29.89,SE,135,2.0,6.7,84,0.00,,,0.00,WUHU216HW,2013-05-29 08:50:00,
2013-05-29 03:55:00,69.8,64.4,29.89,South,180,3.1,6.7,83,0.00,,,0.00,WUHU216HW,2013-05-29 08:55:00,
2013-05-29 04:00:00,70.0,64.3,29.89,SSE,158,0.9,4.7,82,0.00,,,0.00,WUHU216HW,2013-05-29 09:00:00,
2013-05-29 04:05:00,70.2,64.5,29.89,SE,135,1.1,4.7,82,0.00,,,0.00,WUHU216HW,2013-05-29 09:05:00,
2013-05-29 04:10:00,70.2,64.5,29.88,SE,135,0.4,4.3,82,0.00,,,0.00,WUHU216HW,2013-05-29 09:10:00,
2013-05-29 04:15:00,70.2,64.5,29.89,SSE,158,2.7,6.3,82,0.00,,,0.00,WUHU216HW,2013-05-29 09:15:00,
2013-05-29 04:20:00,70.2,64.1,29.88,SSE,158,1.8,6.3,81,0.00,,,0.00,WUHU216HW,2013-05-29 09:20:00,
2013-05-29 04:25:00,70.4,64.3,29.88,NNE,23,2.5,4.7,81,0.00,,,0.00,WUHU216HW,2013-05-29 09:25:00,
2013-05-29 04:30:00,70.4,64.3,29.88,SSW,203,3.4,4.9,81,0.00,,,0.00,WUHU216HW,2013-05-29 09:30:00,
2013-05-29 04:35:00,70.4,64.3,29.88,SSE,158,1.8,8.7,81,0.00,,,0.00,WUHU216HW,2013-05-29 09:35:00,
2013-05-29 04:40:00,70.6,64.1,29.88,ESE,113,2.5,8.7,80,0.00,,,0.00,WUHU216HW,2013-05-29 09:40:00,
2013-05-29 04:45:00,70.6,64.1,29.88,SW,225,1.3,4.5,80,0.00,,,0.00,WUHU216HW,2013-05-29 09:45:00,
2013-05-29 04:50:00,70.6,64.1,29.88,ENE,68,1.8,4.5,80,0.00,,,0.00,WUHU216HW,2013-05-29 09:50:00,
2013-05-29 04:55:00,70.6,64.1,29.88,SSE,158,1.1,6.5,80,0.00,,,0.00,WUHU216HW,2013-05-29 09:55:00,
2013-05-29 05:00:00,70.6,64.1,29.88,South,180,2.0,6.5,80,0.00,,,0.00,WUHU216HW,2013-05-29 10:00:00,
2013-05-29 05:05:00,70.6,64.1,29.88,ESE,113,0.4,6.7,80,0.00,,,0.00,WUHU216HW,2013-05-29 10:05:00,
2013-05-29 05:10:00,70.6,64.1,29.88,SSE,158,1.1,6.7,80,0.00,,,0.00,WUHU216HW,2013-05-29 10:10:00,
2013-05-29 05:15:00,70.6,64.1,29.88,SSE,158,2.5,6.3,80,0.00,,,0.00,WUHU216HW,2013-05-29 10:15:00,
2013-05-29 05:20:00,70.6,64.1,29.88,SE,135,1.8,6.3,80,0.00,,,0.00,WUHU216HW,2013-05-29 10:20:00,
2013-05-29 05:25:00,70.6,64.1,29.88,NNW,338,4.7,4.7,80,0.00,,,0.00,WUHU216HW,2013-05-29 10:25:00,
2013-05-29 05:30:00,70.6,64.1,29.88,WSW,248,5.8,5.8,80,0.00,,,0.00,WUHU216HW,2013-05-29 10:30:00,
2013-05-29 05:35:00,70.6,64.1,29.88,ESE,113,0.9,5.8,80,0.00,,,0.00,WUHU216HW,2013-05-29 10:35:00,
2013-05-29 05:40:00,70.6,64.1,29.88,East,90,2.0,5.8,80,0.00,,,0.00,WUHU216HW,2013-05-29 10:40:00,
2013-05-29 05:45:00,70.6,64.1,29.89,SSE,158,4.0,5.8,80,0.00,,,0.00,WUHU216HW,2013-05-29 10:45:00,
2013-05-29 05:50:00,70.6,64.1,29.89,SE,135,2.5,7.8,80,0.00,,,0.00,WUHU216HW,2013-05-29 10:50:00,
2013-05-29 05:55:00,70.6,64.1,29.89,SE,135,0.4,7.8,80,0.00,,,0.00,WUHU216HW,2013-05-29 10:55:00,
2013-05-29 06:00:00,70.4,63.9,29.89,WNW,293,2.5,4.0,80,0.00,,,0.00,WUHU216HW,2013-05-29 11:00:00,
2013-05-29 06:05:00,70.4,63.9,29.89,SSW,203,4.3,4.3,80,0.00,,,0.00,WUHU216HW,2013-05-29 11:05:00,
2013-05-29 06:10:00,70.4,63.9,29.89,SSE,158,3.6,6.7,80,0.00,,,0.00,WUHU216HW,2013-05-29 11:10:00,
2013-05-29 06:15:00,70.4,63.9,29.89,SSE,158,3.1,6.7,80,0.00,,,0.00,WUHU216HW,2013-05-29 11:15:00,
2013-05-29 06:20:00,70.4,63.9,29.89,SE,135,1.8,4.0,80,0.00,,,0.00,WUHU216HW,2013-05-29 11:20:00,
2013-05-29 06:25:00,70.6,64.1,29.90,SW,225,2.7,4.3,80,0.00,,,0.00,WUHU216HW,2013-05-29 11:25:00,
2013-05-29 06:30:00,70.6,64.1,29.89,SW,225,1.8,6.5,80,0.00,,,0.00,WUHU216HW,2013-05-29 11:30:00,
2013-05-29 06:35:00,70.4,63.9,29.89,SSE,158,1.3,6.5,80,0.00,,,0.00,WUHU216HW,2013-05-29 11:35:00,
2013-05-29 06:40:00,70.6,64.1,29.89,SE,135,3.6,6.3,80,0.00,,,0.00,WUHU216HW,2013-05-29 11:40:00,
2013-05-29 06:45:00,70.6,64.1,29.89,SSE,158,1.8,6.3,80,0.00,,,0.00,WUHU216HW,2013-05-29 11:45:00,
2013-05-29 06:50:00,70.6,64.1,29.89,SSE,158,2.5,5.1,80,0.00,,,0.00,WUHU216HW,2013-05-29 11:50:00,
2013-05-29 06:55:00,70.6,64.1,29.90,ENE,68,2.7,10.5,80,0.00,,,0.00,WUHU216HW,2013-05-29 11:55:00,
2013-05-29 07:00:00,70.6,64.1,29.90,SSE,158,4.7,10.5,80,0.00,,,0.00,WUHU216HW,2013-05-29 12:00:00,
2013-05-29 07:05:00,70.6,64.1,29.90,SSE,158,2.0,4.9,80,0.00,,,0.00,WUHU216HW,2013-05-29 12:05:00,
2013-05-29 07:10:00,70.6,64.1,29.90,SSW,203,2.5,4.7,80,0.00,,,0.00,WUHU216HW,2013-05-29 12:10:00,
2013-05-29 07:15:00,70.6,64.1,29.90,North,0,3.4,5.4,80,0.00,,,0.00,WUHU216HW,2013-05-29 12:15:00,
2013-05-29 07:20:00,70.6,64.1,29.90,SSW,203,1.3,6.3,80,0.00,,,0.00,WUHU216HW,2013-05-29 12:20:00,
2013-05-29 07:25:00,70.6,64.1,29.90,SSW,203,2.9,6.3,80,0.00,,,0.00,WUHU216HW,2013-05-29 12:25:00,
2013-05-29 07:30:00,70.6,64.1,29.89,SE,135,2.5,6.9,80,0.00,,,0.00,WUHU216HW,2013-05-29 12:30:00,
2013-05-29 07:35:00,70.6,64.1,29.89,South,180,2.0,6.9,80,0.00,,,0.00,WUHU216HW,2013-05-29 12:35:00,
2013-05-29 07:40:00,70.6,64.1,29.89,SSE,158,6.3,6.3,80,0.00,,,0.00,WUHU216HW,2013-05-29 12:40:00,
2013-05-29 07:45:00,70.7,64.3,29.89,ESE,113,3.4,6.3,80,0.00,,,0.00,WUHU216HW,2013-05-29 12:45:00,
2013-05-29 07:50:00,70.7,64.3,29.89,South,180,1.8,6.3,80,0.00,,,0.00,WUHU216HW,2013-05-29 12:50:00,
2013-05-29 07:55:00,70.9,64.4,29.89,SW,225,4.7,4.7,80,0.00,,,0.00,WUHU216HW,2013-05-29 12:55:00,
2013-05-29 08:00:00,70.9,64.4,29.89,SSE,158,3.4,5.6,80,0.00,,,0.00,WUHU216HW,2013-05-29 13:00:00,
2013-05-29 08:05:00,70.9,64.4,29.89,South,180,4.0,5.6,80,0.00,,,0.00,WUHU216HW,2013-05-29 13:05:00,
2013-05-29 08:10:00,70.9,64.4,29.89,SSE,158,8.5,8.5,80,0.00,,,0.00,WUHU216HW,2013-05-29 13:10:00,
2013-05-29 08:15:00,70.9,64.4,29.89,South,180,1.6,8.5,80,0.00,,,0.00,WUHU216HW,2013-05-29 13:15:00,
2013-05-29 08:20:00,70.9,64.4,29.89,SSE,158,1.3,8.5,80,0.00,,,0.00,WUHU216HW,2013-05-29 13:20:00,
2013-05-29 08:25:00,70.9,64.4,29.89,WSW,248,1.8,5.8,80,0.00,,,0.00,WUHU216HW,2013-05-29 13:25:00,
2013-05-29 08:30:00,71.1,64.6,29.89,East,90,1.6,3.8,80,0.00,,,0.00,WUHU216HW,2013-05-29 13:30:00,
2013-05-29 08:35:00,71.3,65.2,29.89,SW,225,0.4,3.8,81,0.00,,,0.00,WUHU216HW,2013-05-29 13:35:00,
2013-05-29 08:40:00,71.5,65.4,29.89,SSE,158,2.7,4.7,81,0.00,,,0.00,WUHU216HW,2013-05-29 13:40:00,
2013-05-29 08:45:00,71.6,65.2,29.89,SSE,158,2.7,5.4,80,0.00,,,0.00,WUHU216HW,2013-05-29 13:45:00,
2013-05-29 08:50:00,72.0,65.5,29.90,SSW,203,2.5,6.3,80,0.00,,,0.00,WUHU216HW,2013-05-29 13:50:00,
2013-05-29 08:55:00,72.2,65.7,29.90,WNW,293,4.5,6.3,80,0.00,,,0.00,WUHU216HW,2013-05-29 13:55:00,
2013-05-29 09:00:00,72.5,66.1,29.90,South,180,3.4,5.4,80,0.00,,,0.00,WUHU216HW,2013-05-29 14:00:00,
2013-05-29 09:05:00,72.9,66.8,29.90,SSE,158,4.7,5.8,81,0.00,,,0.00,WUHU216HW,2013-05-29 14:05:00,
2013-05-29 09:10:00,73.3,67.2,29.90,SE,135,2.2,5.8,81,0.00,,,0.00,WUHU216HW,2013-05-29 14:10:00,
2013-05-29 09:15:00,73.4,67.3,29.90,SSE,158,3.4,5.1,81,0.00,,,0.00,WUHU216HW,2013-05-29 14:15:00,
2013-05-29 09:20:00,73.8,67.3,29.90,South,180,3.4,5.1,80,0.00,,,0.00,WUHU216HW,2013-05-29 14:20:00,
2013-05-29 09:25:00,74.0,67.5,29.90,SE,135,5.6,8.3,80,0.00,,,0.00,WUHU216HW,2013-05-29 14:25:00,
2013-05-29 09:30:00,74.3,67.5,29.89,South,180,6.9,8.3,79,0.00,,,0.00,WUHU216HW,2013-05-29 14:30:00,
2013-05-29 09:35:00,74.9,68.1,29.89,SW,225,6.3,7.8,79,0.00,,,0.00,WUHU216HW,2013-05-29 14:35:00,
2013-05-29 09:39:00,75.1,68.2,29.89,South,180,4.7,9.4,79,0.00,,,0.00,WUHU216HW,2013-05-29 14:39:00,
2013-05-29 09:44:00,75.2,68.0,29.89,SW,225,3.4,9.4,78,0.00,,,0.00,WUHU216HW,2013-05-29 14:44:00,
2013-05-29 09:49:00,75.2,68.0,29.89,SSE,158,4.7,8.9,78,0.00,,,0.00,WUHU216HW,2013-05-29 14:49:00,
2013-05-29 09:54:00,75.6,68.3,29.89,SSW,203,6.0,6.7,78,0.00,,,0.00,WUHU216HW,2013-05-29 14:54:00,
2013-05-29 09:59:00,75.8,68.5,29.89,WSW,248,5.4,7.6,78,0.00,,,0.00,WUHU216HW,2013-05-29 14:59:00,
2013-05-29 10:04:00,76.0,68.2,29.88,SSE,158,0.7,7.6,77,0.00,,,0.00,WUHU216HW,2013-05-29 15:04:00,
2013-05-29 10:09:00,76.3,68.6,29.88,SSW,203,4.3,7.2,77,0.00,,,0.00,WUHU216HW,2013-05-29 15:09:00,
2013-05-29 10:14:00,77.0,68.9,29.87,SSE,158,2.0,7.6,76,0.00,,,0.00,WUHU216HW,2013-05-29 15:14:00,
2013-05-29 10:19:00,77.4,69.2,29.88,SSW,203,5.1,8.1,76,0.00,,,0.00,WUHU216HW,2013-05-29 15:19:00,
2013-05-29 10:24:00,77.6,69.0,29.88,SSW,203,1.3,11.6,75,0.00,,,0.00,WUHU216HW,2013-05-29 15:24:00,
2013-05-29 10:29:00,77.8,69.2,29.88,SE,135,2.9,11.6,75,0.00,,,0.00,WUHU216HW,2013-05-29 15:29:00,
2013-05-29 10:34:00,77.9,69.3,29.87,SSE,158,3.4,10.1,75,0.00,,,0.00,WUHU216HW,2013-05-29 15:34:00,
2013-05-29 10:39:00,78.1,69.1,29.88,South,180,6.9,10.1,74,0.00,,,0.00,WUHU216HW,2013-05-29 15:39:00,
2013-05-29 10:44:00,78.5,69.5,29.88,SSW,203,6.7,9.8,74,0.00,,,0.00,WUHU216HW,2013-05-29 15:44:00,
2013-05-29 10:49:00,78.5,69.0,29.88,SSE,158,4.0,9.8,73,0.00,,,0.00,WUHU216HW,2013-05-29 15:49:00,
2013-05-29 10:54:00,78.3,69.0,29.88,SSE,158,6.7,7.6,73,0.00,,,0.00,WUHU216HW,2013-05-29 15:54:00,
2013-05-29 10:59:00,78.1,68.8,29.87,SSW,203,8.3,12.1,73,0.00,,,0.00,WUHU216HW,2013-05-29 15:59:00,
2013-05-29 11:04:00,78.1,68.8,29.87,SSW,203,5.8,12.1,73,0.00,,,0.00,WUHU216HW,2013-05-29 16:04:00,
2013-05-29 11:09:00,78.1,68.8,29.87,SSE,158,4.7,8.7,73,0.00,,,0.00,WUHU216HW,2013-05-29 16:09:00,
2013-05-29 11:14:00,78.1,68.3,29.86,SSE,158,2.9,8.7,72,0.00,,,0.00,WUHU216HW,2013-05-29 16:14:00,
2013-05-29 11:19:00,77.9,68.2,29.87,SSW,203,6.3,7.6,72,0.00,,,0.00,WUHU216HW,2013-05-29 16:19:00,
2013-05-29 11:24:00,77.8,68.4,29.86,SW,225,4.5,7.8,73,0.00,,,0.00,WUHU216HW,2013-05-29 16:24:00,
2013-05-29 11:29:00,77.9,68.6,29.86,SSE,158,6.3,9.4,73,0.00,,,0.00,WUHU216HW,2013-05-29 16:29:00,
2013-05-29 11:34:00,78.3,69.0,29.86,ESE,113,4.0,9.4,73,0.00,,,0.00,WUHU216HW,2013-05-29 16:34:00,
2013-05-29 11:39:00,78.5,68.7,29.86,SE,135,4.5,9.4,72,0.00,,,0.00,WUHU216HW,2013-05-29 16:39:00,
2013-05-29 11:44:00,78.5,68.7,29.86,WSW,248,2.7,9.4,72,0.00,,,0.00,WUHU216HW,2013-05-29 16:44:00,
2013-05-29 11:49:00,78.5,69.0,29.86,SSW,203,3.8,8.9,73,0.00,,,0.00,WUHU216HW,2013-05-29 16:49:00,
2013-05-29 11:54:00,78.7,68.9,29.86,SSE,158,6.9,8.7,72,0.00,,,0.00,WUHU216HW,2013-05-29 16:54:00,
2013-05-29 11:59:00,78.8,69.0,29.86,SSW,203,4.3,8.7,72,0.00,,,0.00,WUHU216HW,2013-05-29 16:59:00,
2013-05-29 12:04:00,79.2,68.9,29.86,SSW,203,7.2,11.6,71,0.00,,,0.00,WUHU216HW,2013-05-29 17:04:00,
2013-05-29 12:09:00,79.6,69.3,29.86,South,180,11.4,11.6,71,0.00,,,0.00,WUHU216HW,2013-05-29 17:09:00,
2013-05-29 12:14:00,79.9,69.3,29.87,SSW,203,8.7,14.5,70,0.00,,,0.00,WUHU216HW,2013-05-29 17:14:00,
2013-05-29 12:19:00,80.3,68.8,29.87,South,180,2.5,14.5,68,0.00,,,0.00,WUHU216HW,2013-05-29 17:19:00,
2013-05-29 12:24:00,80.3,68.8,29.87,SSW,203,5.1,13.4,68,0.00,,,0.00,WUHU216HW,2013-05-29 17:24:00,
2013-05-29 12:29:00,80.3,68.3,29.87,SSW,203,12.1,13.4,67,0.00,,,0.00,WUHU216HW,2013-05-29 17:29:00,
2013-05-29 12:34:00,80.3,67.9,29.88,SSE,158,6.0,13.0,66,0.00,,,0.00,WUHU216HW,2013-05-29 17:34:00,
2013-05-29 12:39:00,80.6,68.2,29.88,West,270,2.5,13.0,66,0.00,,,0.00,WUHU216HW,2013-05-29 17:39:00,
2013-05-29 12:44:00,80.8,68.9,29.88,South,180,6.9,8.7,67,0.00,,,0.00,WUHU216HW,2013-05-29 17:44:00,
2013-05-29 12:49:00,80.8,68.4,29.88,SSW,203,4.0,9.6,66,0.00,,,0.00,WUHU216HW,2013-05-29 17:49:00,
2013-05-29 12:54:00,80.6,68.2,29.88,SSE,158,3.6,9.6,66,0.00,,,0.00,WUHU216HW,2013-05-29 17:54:00,
2013-05-29 12:59:00,80.6,68.2,29.88,SE,135,6.7,7.4,66,0.00,,,0.00,WUHU216HW,2013-05-29 17:59:00,
2013-05-29 13:04:00,80.3,67.9,29.88,SSW,203,4.3,7.4,66,0.00,,,0.00,WUHU216HW,2013-05-29 18:04:00,
2013-05-29 13:09:00,80.3,67.9,29.88,South,180,8.9,8.9,66,0.00,,,0.00,WUHU216HW,2013-05-29 18:09:00,
2013-05-29 13:14:00,80.3,67.9,29.88,SW,225,5.4,8.9,66,0.00,,,0.00,WUHU216HW,2013-05-29 18:14:00,
2013-05-29 13:19:00,79.9,67.5,29.88,SE,135,4.0,9.8,66,0.00,,,0.00,WUHU216HW,2013-05-29 18:19:00,
2013-05-29 13:24:00,79.9,67.5,29.88,ENE,68,2.7,9.8,66,0.00,,,0.00,WUHU216HW,2013-05-29 18:24:00,
2013-05-29 13:29:00,79.6,67.1,29.88,SW,225,4.0,8.1,66,0.00,,,0.00,WUHU216HW,2013-05-29 18:29:00,
2013-05-29 13:34:00,79.4,67.1,29.88,SSE,158,5.6,9.6,66,0.00,,,0.00,WUHU216HW,2013-05-29 18:34:00,
2013-05-29 13:39:00,79.4,67.4,29.88,SE,135,11.4,11.4,67,0.00,,,0.00,WUHU216HW,2013-05-29 18:39:00,
2013-05-29 13:44:00,79.2,67.2,29.88,SSE,158,4.0,11.4,67,0.00,,,0.00,WUHU216HW,2013-05-29 18:44:00,
2013-05-29 13:49:00,79.2,67.2,29.88,SSW,203,4.9,11.4,67,0.00,,,0.00,WUHU216HW,2013-05-29 18:49:00,
2013-05-29 13:54:00,79.4,67.4,29.88,ENE,68,5.4,9.4,67,0.00,,,0.00,WUHU216HW,2013-05-29 18:54:00,
2013-05-29 13:59:00,79.2,67.2,29.88,SE,135,7.2,9.6,67,0.00,,,0.00,WUHU216HW,2013-05-29 18:59:00,
2013-05-29 14:04:00,79.0,67.2,29.88,SSW,203,7.2,9.6,67,0.00,,,0.00,WUHU216HW,2013-05-29 19:04:00,
2013-05-29 14:09:00,79.0,67.2,29.88,SSW,203,5.4,10.7,67,0.00,,,0.00,WUHU216HW,2013-05-29 19:09:00,
2013-05-29 14:14:00,79.0,67.5,29.88,SSW,203,2.9,10.7,68,0.00,,,0.00,WUHU216HW,2013-05-29 19:14:00,
2013-05-29 14:19:00,78.8,67.3,29.88,SE,135,5.6,9.2,68,0.00,,,0.00,WUHU216HW,2013-05-29 19:19:00,
2013-05-29 14:24:00,78.8,67.3,29.87,SSE,158,4.5,9.2,68,0.00,,,0.00,WUHU216HW,2013-05-29 19:24:00,
2013-05-29 14:29:00,79.0,67.5,29.88,SW,225,3.8,10.1,68,0.00,,,0.00,WUHU216HW,2013-05-29 19:29:00,
2013-05-29 14:34:00,79.2,67.7,29.87,SSE,158,1.6,10.1,68,0.00,,,0.00,WUHU216HW,2013-05-29 19:34:00,
2013-05-29 14:39:00,79.4,67.9,29.88,South,180,6.9,8.7,68,0.00,,,0.00,WUHU216HW,2013-05-29 19:39:00,
2013-05-29 14:44:00,79.4,67.9,29.87,WNW,293,4.9,6.9,68,0.00,,,0.00,WUHU216HW,2013-05-29 19:44:00,
2013-05-29 14:49:00,79.6,68.0,29.87,South,180,4.7,6.9,68,0.00,,,0.00,WUHU216HW,2013-05-29 19:49:00,
2013-05-29 14:54:00,79.6,68.0,29.87,SSE,158,9.8,9.8,68,0.00,,,0.00,WUHU216HW,2013-05-29 19:54:00,
2013-05-29 14:59:00,79.2,67.7,29.87,SSW,203,3.8,9.8,68,0.00,,,0.00,WUHU216HW,2013-05-29 19:59:00,
2013-05-29 15:04:00,79.0,67.5,29.87,SSE,158,6.3,10.5,68,0.00,,,0.00,WUHU216HW,2013-05-29 20:04:00,
2013-05-29 15:09:00,79.0,67.5,29.86,South,180,2.2,10.5,68,0.00,,,0.00,WUHU216HW,2013-05-29 20:09:00,
2013-05-29 15:14:00,79.2,68.1,29.86,ESE,113,3.6,6.3,69,0.00,,,0.00,WUHU216HW,2013-05-29 20:14:00,
2013-05-29 15:19:00,79.6,68.5,29.86,SSE,158,4.3,6.9,69,0.00,,,0.00,WUHU216HW,2013-05-29 20:19:00,
2013-05-29 15:24:00,79.9,68.9,29.85,SSW,203,8.9,9.2,69,0.00,,,0.00,WUHU216HW,2013-05-29 20:24:00,
2013-05-29 15:29:00,80.3,68.8,29.85,NE,45,3.8,9.2,68,0.00,,,0.00,WUHU216HW,2013-05-29 20:29:00,
2013-05-29 15:34:00,80.5,68.5,29.85,ESE,113,6.3,8.9,67,0.00,,,0.00,WUHU216HW,2013-05-29 20:34:00,
2013-05-29 15:39:00,80.3,68.3,29.85,SE,135,2.7,8.7,67,0.00,,,0.00,WUHU216HW,2013-05-29 20:39:00,
2013-05-29 15:44:00,80.3,68.3,29.85,South,180,2.5,8.7,67,0.00,,,0.00,WUHU216HW,2013-05-29 20:44:00,
2013-05-29 15:49:00,80.1,68.1,29.84,SW,225,4.9,6.7,67,0.00,,,0.00,WUHU216HW,2013-05-29 20:49:00,
2013-05-29 15:54:00,80.1,68.1,29.85,South,180,8.1,8.1,67,0.00,,,0.00,WUHU216HW,2013-05-29 20:54:00,
2013-05-29 15:59:00,79.9,68.0,29.84,ESE,113,2.5,8.1,67,0.00,,,0.00,WUHU216HW,2013-05-29 20:59:00,
2013-05-29 16:04:00,79.9,68.0,29.84,South,180,4.7,11.0,67,0.00,,,0.00,WUHU216HW,2013-05-29 21:04:00,
2013-05-29 16:09:00,79.7,67.8,29.84,SE,135,5.6,13.0,67,0.00,,,0.00,WUHU216HW,2013-05-29 21:09:00,
2013-05-29 16:14:00,79.7,67.8,29.83,SW,225,5.1,14.5,67,0.00,,,0.00,WUHU216HW,2013-05-29 21:14:00,
2013-05-29 16:19:00,79.7,67.3,29.83,SSE,158,10.5,14.5,66,0.00,,,0.00,WUHU216HW,2013-05-29 21:19:00,
2013-05-29 16:24:00,79.6,67.1,29.82,SSE,158,5.1,10.5,66,0.00,,,0.00,WUHU216HW,2013-05-29 21:24:00,
2013-05-29 16:29:00,79.6,67.1,29.82,SSE,158,10.5,10.5,66,0.00,,,0.00,WUHU216HW,2013-05-29 21:29:00,
2013-05-29 16:34:00,79.4,67.1,29.81,SSE,158,2.2,11.4,66,0.00,,,0.00,WUHU216HW,2013-05-29 21:34:00,
2013-05-29 16:39:00,79.4,67.1,29.81,SSE,158,9.4,14.1,66,0.00,,,0.00,WUHU216HW,2013-05-29 21:39:00,
2013-05-29 16:44:00,79.4,67.1,29.81,South,180,11.2,14.1,66,0.00,,,0.00,WUHU216HW,2013-05-29 21:44:00,
2013-05-29 16:49:00,79.2,66.9,29.81,SE,135,4.9,11.9,66,0.00,,,0.00,WUHU216HW,2013-05-29 21:49:00,
2013-05-29 16:54:00,79.2,66.9,29.81,West,270,5.8,11.2,66,0.00,,,0.00,WUHU216HW,2013-05-29 21:54:00,
2013-05-29 16:59:00,79.2,66.9,29.81,West,270,5.8,11.2,66,0.00,,,0.00,WUHU216HW,2013-05-29 21:59:00,
2013-05-29 17:04:00,78.8,66.5,29.81,SSE,158,6.9,12.5,66,0.00,,,0.00,WUHU216HW,2013-05-29 22:04:00,
2013-05-29 17:09:00,78.7,66.3,29.81,South,180,5.4,12.5,66,0.00,,,0.00,WUHU216HW,2013-05-29 22:09:00,
2013-05-29 17:14:00,78.5,66.2,29.81,SSE,158,5.1,11.6,66,0.00,,,0.00,WUHU216HW,2013-05-29 22:14:00,
2013-05-29 17:19:00,78.5,66.6,29.81,NE,45,4.9,11.6,67,0.00,,,0.00,WUHU216HW,2013-05-29 22:19:00,
2013-05-29 17:24:00,78.3,66.4,29.81,South,180,3.1,8.9,67,0.00,,,0.00,WUHU216HW,2013-05-29 22:24:00,
2013-05-29 17:29:00,78.1,66.2,29.81,SE,135,6.0,10.5,67,0.00,,,0.00,WUHU216HW,2013-05-29 22:29:00,
2013-05-29 17:34:00,78.1,66.2,29.81,SSE,158,6.0,10.5,67,0.00,,,0.00,WUHU216HW,2013-05-29 22:34:00,
2013-05-29 17:39:00,78.1,66.2,29.80,East,90,6.3,6.3,67,0.00,,,0.00,WUHU216HW,2013-05-29 22:39:00,
2013-05-29 17:44:00,78.1,66.2,29.80,SE,135,6.9,6.9,67,0.00,,,0.00,WUHU216HW,2013-05-29 22:44:00,
2013-05-29 17:49:00,78.1,66.2,29.80,West,270,4.0,8.3,67,0.00,,,0.00,WUHU216HW,2013-05-29 22:49:00,
2013-05-29 17:54:00,78.3,66.4,29.80,SSW,203,4.7,8.3,67,0.00,,,0.00,WUHU216HW,2013-05-29 22:54:00,
2013-05-29 17:59:00,78.1,66.2,29.80,SSW,203,5.8,8.3,67,0.00,,,0.00,WUHU216HW,2013-05-29 22:59:00,
2013-05-29 18:04:00,78.1,66.2,29.79,South,180,2.7,9.8,67,0.00,,,0.00,WUHU216HW,2013-05-29 23:04:00,
2013-05-29 18:09:00,78.1,66.2,29.78,ESE,113,4.7,9.8,67,0.00,,,0.00,WUHU216HW,2013-05-29 23:09:00,
2013-05-29 18:14:00,77.9,66.1,29.77,South,180,4.7,11.6,67,0.00,,,0.00,WUHU216HW,2013-05-29 23:14:00,
2013-05-29 18:19:00,77.9,66.1,29.77,ENE,68,2.9,11.6,67,0.00,,,0.00,WUHU216HW,2013-05-29 23:19:00,
2013-05-29 18:24:00,77.9,66.1,29.76,South,180,2.9,10.5,67,0.00,,,0.00,WUHU216HW,2013-05-29 23:24:00,
2013-05-29 18:29:00,77.9,66.1,29.76,South,180,6.9,10.5,67,0.00,,,0.00,WUHU216HW,2013-05-29 23:29:00,
2013-05-29 18:34:00,77.9,66.1,29.76,East,90,6.9,10.5,67,0.00,,,0.00,WUHU216HW,2013-05-29 23:34:00,
2013-05-29 18:39:00,77.9,66.1,29.76,South,180,6.3,8.7,67,0.00,,,0.00,WUHU216HW,2013-05-29 23:39:00,
2013-05-29 18:44:00,77.9,66.1,29.76,WSW,248,3.4,8.1,67,0.00,,,0.00,WUHU216HW,2013-05-29 23:44:00,
2013-05-29 18:49:00,77.9,66.1,29.77,SSW,203,4.7,8.1,67,0.00,,,0.00,WUHU216HW,2013-05-29 23:49:00,
2013-05-29 18:54:00,77.8,65.9,29.77,SSE,158,4.0,8.7,67,0.00,,,0.00,WUHU216HW,2013-05-29 23:54:00,
2013-05-29 18:59:00,77.8,65.9,29.77,ESE,113,4.0,8.7,67,0.00,,,0.00,WUHU216HW,2013-05-29 23:59:00,
2013-05-29 19:04:00,77.6,65.8,29.76,WSW,248,5.1,11.4,67,0.00,,,0.00,WUHU216HW,2013-05-30 00:04:00,
2013-05-29 19:09:00,77.4,65.6,29.76,South,180,2.2,11.4,67,0.00,,,0.00,WUHU216HW,2013-05-30 00:09:00,
2013-05-29 19:14:00,77.4,66.1,29.76,SSE,158,9.8,10.7,68,0.00,,,0.00,WUHU216HW,2013-05-30 00:14:00,
2013-05-29 19:19:00,77.4,65.6,29.77,SSE,158,6.3,9.8,67,0.00,,,0.00,WUHU216HW,2013-05-30 00:19:00,
2013-05-29 19:24:00,77.4,65.6,29.78,SE,135,4.0,10.5,67,0.00,,,0.00,WUHU216HW,2013-05-30 00:24:00,
2013-05-29 19:29:00,77.4,65.6,29.78,SW,225,4.7,10.5,67,0.00,,,0.00,WUHU216HW,2013-05-30 00:29:00,
2013-05-29 19:34:00,77.4,65.6,29.78,South,180,2.7,10.5,67,0.00,,,0.00,WUHU216HW,2013-05-30 00:34:00,
2013-05-29 19:39:00,77.4,65.6,29.78,SE,135,4.0,10.5,67,0.00,,,0.00,WUHU216HW,2013-05-30 00:39:00,
2013-05-29 19:44:00,77.4,65.6,29.79,WSW,248,5.1,10.1,67,0.00,,,0.00,WUHU216HW,2013-05-30 00:44:00,
2013-05-29 19:49:00,77.2,65.4,29.79,South,180,2.9,10.1,67,0.00,,,0.00,WUHU216HW,2013-05-30 00:49:00,
2013-05-29 19:54:00,77.2,65.4,29.79,SE,135,7.4,7.8,67,0.00,,,0.00,WUHU216HW,2013-05-30 00:54:00,
2013-05-29 19:59:00,77.0,65.3,29.79,South,180,4.5,7.8,67,0.00,,,0.00,WUHU216HW,2013-05-30 00:59:00,
2013-05-29 20:04:00,77.0,65.3,29.80,South,180,1.8,10.1,67,0.00,,,0.00,WUHU216HW,2013-05-30 01:04:00,
2013-05-29 20:09:00,77.0,65.3,29.80,South,180,4.0,10.1,67,0.00,,,0.00,WUHU216HW,2013-05-30 01:09:00,
2013-05-29 20:14:00,76.9,65.1,29.79,South,180,4.9,7.8,67,0.00,,,0.00,WUHU216HW,2013-05-30 01:14:00,
2013-05-29 20:19:00,76.9,65.1,29.79,South,180,2.7,7.8,67,0.00,,,0.00,WUHU216HW,2013-05-30 01:19:00,
2013-05-29 20:24:00,76.7,65.3,29.79,SSW,203,5.4,9.8,68,0.00,,,0.00,WUHU216HW,2013-05-30 01:24:00,
2013-05-29 20:29:00,76.7,65.3,29.80,SW,225,3.1,9.8,68,0.00,,,0.00,WUHU216HW,2013-05-30 01:29:00,
2013-05-29 20:34:00,76.7,65.3,29.80,SW,225,1.8,9.8,68,0.00,,,0.00,WUHU216HW,2013-05-30 01:34:00,
2013-05-29 20:39:00,76.7,65.3,29.80,SSW,203,5.4,7.4,68,0.00,,,0.00,WUHU216HW,2013-05-30 01:39:00,
2013-05-29 20:44:00,76.5,65.2,29.80,South,180,4.0,6.3,68,0.00,,,0.00,WUHU216HW,2013-05-30 01:44:00,
2013-05-29 20:49:00,76.5,65.2,29.80,SE,135,2.7,6.3,68,0.00,,,0.00,WUHU216HW,2013-05-30 01:49:00,
2013-05-29 20:54:00,76.5,65.6,29.81,SSW,203,3.4,6.3,69,0.00,,,0.00,WUHU216HW,2013-05-30 01:54:00,
2013-05-29 20:59:00,76.3,65.4,29.81,SSW,203,4.7,6.3,69,0.00,,,0.00,WUHU216HW,2013-05-30 01:59:00,
2013-05-29 21:04:00,76.3,65.4,29.81,South,180,2.5,4.7,69,0.00,,,0.00,WUHU216HW,2013-05-30 02:04:00,
2013-05-29 21:09:00,76.3,65.4,29.81,SSE,158,8.9,8.9,69,0.00,,,0.00,WUHU216HW,2013-05-30 02:09:00,
2013-05-29 21:14:00,76.3,65.4,29.81,SSE,158,2.7,8.9,69,0.00,,,0.00,WUHU216HW,2013-05-30 02:14:00,
2013-05-29 21:19:00,76.1,65.3,29.81,SSE,158,1.6,8.9,69,0.00,,,0.00,WUHU216HW,2013-05-30 02:19:00,
2013-05-29 21:24:00,76.1,65.3,29.81,WSW,248,3.4,6.5,69,0.00,,,0.00,WUHU216HW,2013-05-30 02:24:00,
2013-05-29 21:29:00,76.1,65.3,29.81,SSE,158,2.9,6.7,69,0.00,,,0.00,WUHU216HW,2013-05-30 02:29:00,
2013-05-29 21:34:00,76.0,65.5,29.81,SSW,203,6.0,6.7,70,0.00,,,0.00,WUHU216HW,2013-05-30 02:34:00,
2013-05-29 21:39:00,76.0,65.5,29.81,SSE,158,0.4,6.0,70,0.00,,,0.00,WUHU216HW,2013-05-30 02:39:00,
2013-05-29 21:44:00,76.0,65.5,29.81,SSE,158,2.0,6.9,70,0.00,,,0.00,WUHU216HW,2013-05-30 02:44:00,
2013-05-29 21:49:00,76.0,65.5,29.81,South,180,3.8,6.9,70,0.00,,,0.00,WUHU216HW,2013-05-30 02:49:00,
2013-05-29 21:54:00,75.8,65.3,29.80,South,180,4.0,5.4,70,0.00,,,0.00,WUHU216HW,2013-05-30 02:54:00,
2013-05-29 21:59:00,75.8,65.7,29.80,SE,135,3.1,7.2,71,0.00,,,0.00,WUHU216HW,2013-05-30 02:59:00,
2013-05-29 22:04:00,75.6,65.5,29.80,SW,225,3.1,7.2,71,0.00,,,0.00,WUHU216HW,2013-05-30 03:04:00,
2013-05-29 22:09:00,75.6,65.5,29.80,SE,135,3.4,4.5,71,0.00,,,0.00,WUHU216HW,2013-05-30 03:09:00,
2013-05-29 22:14:00,75.6,65.5,29.79,ENE,68,1.8,5.1,71,0.00,,,0.00,WUHU216HW,2013-05-30 03:14:00,
2013-05-29 22:19:00,75.6,65.5,29.79,SE,135,1.3,5.4,71,0.00,,,0.00,WUHU216HW,2013-05-30 03:19:00,
2013-05-29 22:24:00,75.6,65.5,29.79,South,180,6.9,6.9,71,0.00,,,0.00,WUHU216HW,2013-05-30 03:24:00,
2013-05-29 22:29:00,75.6,65.5,29.79,SSW,203,0.9,6.9,71,0.00,,,0.00,WUHU216HW,2013-05-30 03:29:00,
2013-05-29 22:34:00,75.6,65.5,29.79,East,90,2.5,7.4,71,0.00,,,0.00,WUHU216HW,2013-05-30 03:34:00,
2013-05-29 22:39:00,75.6,65.5,29.79,South,180,3.1,7.4,71,0.00,,,0.00,WUHU216HW,2013-05-30 03:39:00,
2013-05-29 22:44:00,75.4,65.8,29.79,SSW,203,1.1,6.0,72,0.00,,,0.00,WUHU216HW,2013-05-30 03:44:00,
2013-05-29 22:49:00,75.1,65.8,29.80,South,180,12.1,12.1,73,0.01,,,0.01,WUHU216HW,2013-05-30 03:49:00,
2013-05-29 22:54:00,74.5,66.1,29.80,South,180,3.4,12.1,75,0.02,,,0.02,WUHU216HW,2013-05-30 03:54:00,
2013-05-29 22:59:00,73.8,65.8,29.80,SE,135,2.5,12.1,76,0.03,,,0.03,WUHU216HW,2013-05-30 03:59:00,
2013-05-29 23:01:00,73.8,65.8,29.80,WSW,248,3.6,8.3,76,0.03,,,0.03,WUHU216HW,2013-05-30 04:01:00,
2013-05-29 23:06:00,73.1,65.4,29.81,ENE,68,4.9,8.5,77,0.04,,,0.03,WUHU216HW,2013-05-30 04:06:00,
2013-05-29 23:11:00,72.5,65.4,29.81,South,180,6.5,8.5,78,0.04,,,0.04,WUHU216HW,2013-05-30 04:11:00,
2013-05-29 23:17:00,72.0,64.4,29.81,SSE,158,5.6,9.8,77,0.04,,,0.04,WUHU216HW,2013-05-30 04:17:00,
2013-05-29 23:22:00,71.5,63.8,29.81,South,180,3.8,9.8,77,0.04,,,0.04,WUHU216HW,2013-05-30 04:22:00,
2013-05-29 23:27:00,70.7,63.1,29.81,ESE,113,4.5,9.6,77,0.04,,,0.04,WUHU216HW,2013-05-30 04:27:00,
2013-05-29 23:32:00,70.0,62.4,29.81,South,180,2.7,13.6,77,0.05,,,0.05,WUHU216HW,2013-05-30 04:32:00,
2013-05-29 23:37:00,69.5,61.9,29.81,ESE,113,2.5,13.6,77,0.05,,,0.05,WUHU216HW,2013-05-30 04:37:00,
2013-05-29 23:41:00,69.1,61.6,29.80,ESE,113,3.8,8.5,77,0.06,,,0.06,WUHU216HW,2013-05-30 04:41:00,
2013-05-29 23:46:00,68.6,61.5,29.80,SSW,203,6.3,7.2,78,0.06,,,0.06,WUHU216HW,2013-05-30 04:46:00,
2013-05-29 23:51:00,68.2,61.6,29.80,East,90,1.1,8.9,79,0.05,,,0.07,WUHU216HW,2013-05-30 04:51:00,
2013-05-29 23:56:00,67.9,61.6,29.80,SSE,158,4.3,8.9,80,0.05,,,0.08,WUHU216HW,2013-05-30 04:56:00,